Change the Weather History Date:

Thursday, July 11, 2013

  Actual Average Record
Temperature  
Mean Temperature 80 °F -  
Max Temperature 91 °F 95 °F 105 °F (1980)
Min Temperature 71 °F 72 °F 67 °F (1965)
Cooling Degree Days 16    
Growing Degree Days 30 (Base 50)    
Moisture  
Dew Point 74 °F    
Average Humidity 90    
Maximum Humidity 100    
Minimum Humidity 60    
Precipitation  
Precipitation 0.72 in - - ()
Sea Level Pressure  
Sea Level Pressure 29.94 in    
Wind  
Wind Speed 5 mph (SW)    
Max Wind Speed 22 mph    
Max Gust Speed 30 mph    
Visibility 8 miles    
Events Rain , Thunderstorm    
Averages and records for this station are not official NWS values.
T = Trace of Precipitation, MM = Missing Value Source: NWS Daily Summary

Daily Weather History Graph

Daily Weather History Graph

Search for Another Location

Airport or City:

Trip Planner

Search our weather history database for the weather conditions in past years. The results will help you decide how hot, cold, wet, or windy it might be!

Date:

Astronomy

Jul. 11, 2013 Rise Set
Actual Time 6:29 AM EDT 8:34 PM EDT
Civil Twilight 6:01 AM EDT 9:02 PM EDT
Nautical Twilight 5:27 AM EDT 9:35 PM EDT
Astronomical Twilight 4:51 AM EDT 10:12 PM EDT
Moon 9:31 AM EDT (7/11) 10:30 PM EDT (7/11)
Length of Visible Light 15h 00m
Length of Day
14h 05m
Waxing Crescent, 10% of the Moon is Illuminated
Jul 11
Waxing Crescent
Jul 15
First Quarter
Jul 22
Full
Jul 29
Last Quarter
Aug 6
New

Hourly Weather History & Observations

Time (EDT) Temp. Heat Index Dew Point Humidity Pressure Visibility Wind Dir Wind Speed Gust Speed Precip Events Conditions
12:58 AM 75.4 °F - 74.8 °F 98% 30.02 in 10.0 mi SW 4.6 mph - N/A   Overcast
1:58 AM 74.5 °F - 74.1 °F 99% 30.02 in 10.0 mi West 1.2 mph - N/A   Clear
2:58 AM 73.8 °F - 73.8 °F 100% 30.01 in 10.0 mi Calm Calm - N/A   Clear
3:58 AM 73.2 °F - 73.2 °F 100% 30.00 in 10.0 mi SSE 2.3 mph - N/A   Clear
4:23 AM 73.4 °F - 73.4 °F 100% 29.99 in 9.0 mi SSW 3.5 mph - N/A   Clear
4:28 AM 73.4 °F - 73.4 °F 100% 29.99 in 10.0 mi WSW 2.3 mph - N/A   Clear
4:58 AM 72.9 °F - 72.9 °F 100% 29.99 in 10.0 mi ESE 3.5 mph - N/A   Clear
5:43 AM 71.6 °F - 71.6 °F 100% 29.98 in 9.0 mi SW 1.2 mph - N/A   Clear
5:48 AM 71.6 °F - 71.6 °F 100% 29.98 in 10.0 mi West 2.3 mph - N/A   Clear
5:58 AM 72.3 °F - 72.3 °F 100% 29.99 in 10.0 mi Calm Calm - N/A   Clear
6:58 AM 72.3 °F - 72.3 °F 100% 29.99 in 10.0 mi Calm Calm - N/A   Partly Cloudy
7:58 AM 75.4 °F - 75.2 °F 99% 30.00 in 10.0 mi SW 3.5 mph - N/A   Clear
8:58 AM 78.3 °F - 76.5 °F 94% 29.99 in 10.0 mi SSW 4.6 mph - N/A   Partly Cloudy
9:58 AM 81.5 °F 88.7 °F 76.5 °F 85% 30.00 in 10.0 mi South 3.5 mph - N/A   Mostly Cloudy
10:08 AM 82.4 °F 90.9 °F 77.0 °F 84% 29.99 in 10.0 mi West 4.6 mph - N/A   Overcast
10:43 AM 82.4 °F 89.5 °F 75.2 °F 79% 29.99 in 10.0 mi SW 3.5 mph - N/A   Mostly Cloudy
10:58 AM 83.5 °F 92.2 °F 76.3 °F 79% 30.00 in 10.0 mi Variable 3.5 mph - N/A   Partly Cloudy
11:58 AM 86.0 °F 95.5 °F 75.7 °F 71% 29.99 in 10.0 mi Variable 6.9 mph - N/A   Mostly Cloudy
12:08 PM 87.8 °F 97.6 °F 75.2 °F 66% 29.97 in 10.0 mi SW 9.2 mph - N/A   Mostly Cloudy
12:58 PM 88.9 °F 99.7 °F 75.7 °F 65% 29.97 in 10.0 mi SSW 9.2 mph - N/A   Scattered Clouds
1:58 PM 88.9 °F 99.2 °F 75.4 °F 64% 29.95 in 10.0 mi SSW 10.4 mph - N/A   Mostly Cloudy
2:58 PM 90.0 °F 99.6 °F 74.5 °F 60% 29.93 in 10.0 mi Variable 6.9 mph - N/A   Mostly Cloudy
3:58 PM 88.7 °F 99.8 °F 76.1 °F 66% 29.91 in 10.0 mi SE 6.9 mph - N/A   Mostly Cloudy
4:58 PM 88.5 °F 102.8 °F 78.3 °F 72% 29.89 in 10.0 mi ESE 10.4 mph - N/A   Clear
5:58 PM 84.7 °F 94.0 °F 76.1 °F 75% 29.88 in 10.0 mi SE 11.5 mph 19.6 mph N/A   Clear
6:31 PM 80.6 °F 86.2 °F 75.2 °F 84% 29.87 in 10.0 mi SSE 8.1 mph - N/A Thunderstorm Thunderstorm
6:46 PM 80.6 °F 86.2 °F 75.2 °F 84% 29.88 in 10.0 mi SSE 5.8 mph - N/A   Partly Cloudy
6:58 PM 80.8 °F 86.7 °F 75.6 °F 84% 29.90 in 10.0 mi Variable 5.8 mph - N/A   Mostly Cloudy
7:58 PM 80.4 °F 86.8 °F 77.2 °F 90% 29.92 in 10.0 mi WNW 16.1 mph 21.9 mph N/A   Overcast
7:59 PM 80.6 °F 87.1 °F 77.0 °F 89% 29.91 in 10.0 mi WNW 15.0 mph 21.9 mph N/A   Light Drizzle
8:07 PM 77.0 °F - 73.4 °F 89% 29.90 in 10.0 mi NW 5.8 mph 21.9 mph N/A   Overcast
8:42 PM 78.8 °F - 73.4 °F 83% 29.93 in 10.0 mi SW 18.4 mph 27.6 mph N/A Thunderstorm Light Drizzle
8:43 PM 78.8 °F - 73.4 °F 83% 29.92 in 10.0 mi SW 16.1 mph 27.6 mph N/A Rain , Thunderstorm Light Thunderstorms and Rain
8:48 PM 77.0 °F - 71.6 °F 83% 29.91 in 4.0 mi WSW 20.7 mph 27.6 mph N/A Rain , Thunderstorm Heavy Thunderstorms and Rain
8:50 PM 75.2 °F - 71.6 °F 89% 29.91 in 3.0 mi West 21.9 mph 29.9 mph N/A Rain , Thunderstorm Heavy Thunderstorms and Rain
8:55 PM 73.4 °F - 71.6 °F 94% 29.91 in 1.5 mi West 15.0 mph 29.9 mph N/A Rain , Thunderstorm Heavy Thunderstorms and Rain
8:58 PM 73.4 °F - 71.6 °F 94% 29.93 in 1.5 mi WSW 11.5 mph 29.9 mph 0.16 in Rain , Thunderstorm Heavy Thunderstorms and Rain
9:03 PM 73.4 °F - 71.6 °F 94% 29.91 in 2.0 mi SW 5.8 mph - N/A Rain , Thunderstorm Heavy Thunderstorms and Rain
9:13 PM 73.4 °F - 71.6 °F 94% 29.92 in 1.5 mi WSW 3.5 mph - N/A Rain , Thunderstorm Heavy Thunderstorms and Rain
9:23 PM 73.4 °F - 73.4 °F 100% 29.91 in 2.5 mi Calm Calm - N/A Rain , Thunderstorm Thunderstorms and Rain
9:28 PM 73.4 °F - 73.4 °F 100% 29.91 in 6.0 mi Calm Calm - N/A Rain , Thunderstorm Thunderstorms and Rain
9:46 PM 73.4 °F - 73.4 °F 100% 29.92 in 8.0 mi Variable 5.8 mph 18.4 mph N/A Rain , Thunderstorm Light Rain
9:51 PM 75.2 °F - 75.2 °F 100% 29.91 in 8.0 mi Variable 5.8 mph - N/A Rain , Thunderstorm Heavy Rain
9:56 PM 75.2 °F - 75.2 °F 100% 29.91 in 6.0 mi SW 5.8 mph - N/A Rain Heavy Rain
9:58 PM 74.7 °F - 74.7 °F 100% 29.92 in 6.0 mi SSW 6.9 mph - 0.43 in Rain Heavy Rain
10:08 PM 75.2 °F - 75.2 °F 100% 29.92 in 7.0 mi SSW 3.5 mph - N/A Rain Heavy Rain
10:23 PM 75.2 °F - 75.2 °F 100% 29.91 in 5.0 mi Calm Calm - N/A Rain Heavy Rain
10:48 PM 75.2 °F - 75.2 °F 100% 29.90 in 10.0 mi SSE 5.8 mph - N/A Rain Light Rain
10:58 PM 75.2 °F - 75.2 °F 100% 29.92 in 10.0 mi SW 5.8 mph - 0.12 in Rain Light Rain
11:21 PM 75.2 °F - 75.2 °F 100% 29.92 in 10.0 mi SSE 2.3 mph - N/A   Clear
11:41 PM 75.2 °F - 75.2 °F 100% 29.93 in 10.0 mi SE 2.3 mph - N/A   Mostly Cloudy
11:46 PM 75.2 °F - 75.2 °F 100% 29.92 in 10.0 mi Calm Calm - N/A   Mostly Cloudy
11:58 PM 74.7 °F - 74.7 °F 100% 29.93 in 10.0 mi NNW 1.2 mph - 0.01 in   Mostly Cloudy